Date,Time,AIRTEMP,RAIN ,WNDSPD,WINDDIR,
ADT,ADT,DegC,.01/in,MPH,Deg,
1/1/2006,0:00,-21.6,,0.2,186,
1/1/2006,1:00,-21.2,,0.2,186,
1/1/2006,2:00,-20.9,,0.4,16,
1/1/2006,3:00,-20.9,,1.8,215,
1/1/2006,4:00,-21.0,,2.4,209,
1/1/2006,5:00,-20.9,,1.3,258,
1/1/2006,6:00,-20.3,,1.8,311,
1/1/2006,7:00,-19.6,,1.1,172,
1/1/2006,8:00,-19.8,,1.5,263,
1/1/2006,9:00,-19.8,,1.8,226,
1/1/2006,10:00,-20.1,,1.5,229,
1/1/2006,11:00,-20.0,,1.3,272,
1/1/2006,12:00,-19.6,,1.3,223,
1/1/2006,13:00,-19.8,,1.8,213,
1/1/2006,14:00,-19.7,,2.0,249,
1/1/2006,15:00,-19.5,,1.5,243,
1/1/2006,16:00,-19.4,,1.3,253,
1/1/2006,17:00,-19.2,,1.8,223,
1/1/2006,18:00,-19.3,,1.8,224,
1/1/2006,19:00,-19.8,,1.5,227,
1/1/2006,20:00,-19.1,,1.3,256,
1/1/2006,21:00,-18.7,,0.7,237,
1/1/2006,22:00,-18.8,,1.3,219,
1/1/2006,23:00,-18.7,,1.1,213,
1/2/2006,0:00,-18.0,,0.2,20,
1/2/2006,1:00,-17.1,,1.5,318,
1/2/2006,2:00,-17.2,,0.7,22,
1/2/2006,3:00,-17.3,,0.9,360,
1/2/2006,4:00,-17.3,,0.7,3,
1/2/2006,5:00,-17.3,,0.4,323,
1/2/2006,6:00,-17.6,,1.3,204,
1/2/2006,7:00,-18.3,,0.9,223,
1/2/2006,8:00,-18.5,,0.9,215,
1/2/2006,9:00,-18.5,,0.7,225,
1/2/2006,10:00,-18.2,,0.7,242,
1/2/2006,11:00,-18.1,,0.7,238,
1/2/2006,12:00,-18.4,,0.9,228,
1/2/2006,13:00,-18.2,,0.9,232,
1/2/2006,14:00,-18.0,,0.7,236,
1/2/2006,15:00,-17.8,,0.7,249,
1/2/2006,16:00,-17.5,,0.2,234,
1/2/2006,17:00,-17.7,,0.7,234,
1/2/2006,18:00,-17.8,,0.7,245,
1/2/2006,19:00,-17.8,,0.7,248,
1/2/2006,20:00,-17.6,,0.4,249,
1/2/2006,21:00,-17.4,,0.2,244,Wspd frozen
1/2/2006,22:00,-17.1,,0.2,256,Wspd frozen
1/2/2006,23:00,-16.2,,0.2,338,Wspd frozen
1/3/2006,0:00,-16.5,,0.2,328,Wspd frozen
1/3/2006,1:00,-16.6,,0.2,346,Wspd frozen
1/3/2006,2:00,-16.9,,0.2,322,Wspd frozen
1/3/2006,3:00,-17.1,,0.2,335,Wspd frozen
1/3/2006,4:00,-17.2,,0.2,335,Wspd frozen
1/3/2006,5:00,-17.1,,0.2,338,Wspd frozen
1/3/2006,6:00,-17.1,,0.2,322,Wspd frozen
1/3/2006,7:00,-17.5,,0.2,1,Wspd frozen
1/3/2006,8:00,-17.8,,0.2,356,Wspd frozen
1/3/2006,9:00,-18.0,,0.2,360,Wspd frozen
1/3/2006,10:00,-18.4,,0.2,356,Wspd frozen
1/3/2006,11:00,-18.3,,0.2,0,Wspd frozen
1/3/2006,12:00,-18.4,,0.2,355,Wspd frozen
1/3/2006,13:00,-18.5,,0.2,343,Wspd frozen
1/3/2006,14:00,-18.9,,0.2,336,Wspd frozen
1/3/2006,15:00,-19.4,,0.2,340,Wspd frozen
1/3/2006,16:00,-19.9,,0.2,14,Wspd frozen
1/3/2006,17:00,-20.4,,0.2,310,Wspd frozen
1/3/2006,18:00,-20.6,,0.2,290,Wspd frozen
1/3/2006,19:00,-20.8,,0.2,311,Wspd frozen
1/3/2006,20:00,-20.1,,0.2,344,Wspd frozen
1/3/2006,21:00,-19.8,,0.2,5,Wspd frozen
1/3/2006,22:00,-19.6,,0.2,32,Wspd frozen
1/3/2006,23:00,-19.3,,0.2,28,Wspd frozen
1/4/2006,0:00,-19.0,,0.2,58,Wspd frozen
1/4/2006,1:00,-18.6,,0.2,62,Wspd frozen
1/4/2006,2:00,-19.0,,0.2,31,Wspd frozen
1/4/2006,3:00,-18.3,,0.2,80,Wspd frozen
1/4/2006,4:00,-18.7,,0.2,89,Wspd frozen
1/4/2006,5:00,-19.0,,0.2,85,Wspd frozen
1/4/2006,6:00,-20.4,,0.2,99,Wspd frozen
1/4/2006,7:00,-21.2,,0.2,68,Wspd frozen
1/4/2006,8:00,-22.7,,0.2,78,Wspd frozen
1/4/2006,9:00,-25.5,,0.2,51,Wspd frozen
1/4/2006,10:00,-27.0,,0.2,47,Wspd frozen
1/4/2006,11:00,-27.7,,0.2,76,Wspd frozen
1/4/2006,12:00,-28.1,,0.2,68,Wspd frozen
1/4/2006,13:00,-28.4,,0.2,92,Wspd frozen
1/4/2006,14:00,-29.4,,0.2,40,Wspd frozen
1/4/2006,15:00,-28.9,,0.2,68,Wspd frozen
1/4/2006,16:00,-28.8,,0.2,58,Wspd frozen
1/4/2006,17:00,-27.6,,0.2,49,Wspd frozen
1/4/2006,18:00,-26.9,,0.2,58,Wspd frozen
1/4/2006,19:00,-26.3,,0.2,68,Wspd frozen
1/4/2006,20:00,-25.8,,0.2,52,Wspd frozen
1/4/2006,21:00,-25.7,,0.2,59,Wspd frozen
1/4/2006,22:00,-25.5,,0.2,80,Wspd frozen
1/4/2006,23:00,-26.1,,0.2,32,Wspd frozen
1/5/2006,0:00,-26.2,,0.2,50,Wspd frozen
1/5/2006,1:00,-25.9,,0.2,67,Wspd frozen
1/5/2006,2:00,-24.7,,0.2,77,Wspd frozen
1/5/2006,3:00,-24.3,,0.2,80,Wspd frozen
1/5/2006,4:00,-24.4,,0.2,89,Wspd frozen
1/5/2006,5:00,-25.8,,0.2,61,Wspd frozen
1/5/2006,6:00,-27.2,,0.2,31,Wspd frozen
1/5/2006,7:00,-25.6,,0.2,58,Wspd frozen
1/5/2006,8:00,-24.3,,0.2,63,Wspd frozen
1/5/2006,9:00,-24.5,,0.2,51,Wspd frozen
1/5/2006,10:00,-24.8,,0.2,54,Wspd frozen
1/5/2006,11:00,-24.2,,0.2,58,Wspd frozen
1/5/2006,12:00,-25.3,,0.2,58,Wspd frozen
1/5/2006,13:00,-26.8,,0.2,48,Wspd frozen
1/5/2006,14:00,-27.3,,0.2,56,Wspd frozen
1/5/2006,15:00,-28.1,,0.2,46,Wspd frozen
1/5/2006,16:00,-28.2,,0.2,51,Wspd frozen
1/5/2006,17:00,-28.9,,0.2,40,Wspd frozen
1/5/2006,18:00,-28.3,,0.2,51,Wspd frozen
1/5/2006,19:00,-28.4,,0.2,47,Wspd frozen
1/5/2006,20:00,-28.6,,0.2,49,Wspd frozen
1/5/2006,21:00,-27.6,,0.2,72,Wspd frozen
1/5/2006,22:00,-27.4,,0.2,84,Wspd frozen
1/5/2006,23:00,-26.9,,0.2,80,Wspd frozen
1/6/2006,0:00,-27.0,,0.2,53,Wspd frozen
1/6/2006,1:00,-26.9,,0.2,51,Wspd frozen
1/6/2006,2:00,-26.6,,0.2,55,Wspd frozen
1/6/2006,3:00,-26.2,,0.2,38,Wspd frozen
1/6/2006,4:00,-26.1,,0.2,57,Wspd frozen
1/6/2006,5:00,-25.3,,0.2,59,Wspd frozen
1/6/2006,6:00,-25.0,,0.2,53,Wspd frozen
1/6/2006,7:00,-24.6,,0.2,60,Wspd frozen
1/6/2006,8:00,-24.5,,0.2,52,Wspd frozen
1/6/2006,9:00,-24.3,,0.2,65,Wspd frozen
1/6/2006,10:00,-24.3,,0.2,41,Wspd frozen
1/6/2006,11:00,-24.2,,0.2,47,Wspd frozen
1/6/2006,12:00,-24.1,,0.2,63,Wspd frozen
1/6/2006,13:00,-23.4,,0.2,52,Wspd frozen
1/6/2006,14:00,-23.3,,0.2,48,Wspd frozen
1/6/2006,15:00,-23.0,,0.2,55,Wspd frozen
1/6/2006,16:00,-22.9,,0.2,32,Wspd frozen
1/6/2006,17:00,-23.3,,0.2,43,Wspd frozen
1/6/2006,18:00,-23.4,,0.2,48,Wspd frozen
1/6/2006,19:00,-23.6,,0.2,50,Wspd frozen
1/6/2006,20:00,-24.1,,0.2,21,Wspd frozen
1/6/2006,21:00,-24.0,,0.2,46,Wspd frozen
1/6/2006,22:00,-24.0,,0.2,41,Wspd frozen
1/6/2006,23:00,-24.0,,0.2,40,Wspd frozen
1/7/2006,0:00,-24.0,,0.2,44,Wspd frozen
1/7/2006,1:00,-24.1,,0.2,48,Wspd frozen
1/7/2006,2:00,-23.9,,0.2,39,Wspd frozen
1/7/2006,3:00,-23.7,,0.2,46,Wspd frozen
1/7/2006,4:00,-23.6,,0.2,47,Wspd frozen
1/7/2006,5:00,-23.8,,0.2,41,Wspd frozen
1/7/2006,6:00,-24.4,,0.2,42,Wspd frozen
1/7/2006,7:00,-25.1,,0.2,53,Wspd frozen
1/7/2006,8:00,-26.6,,0.2,38,Wspd frozen
1/7/2006,9:00,-26.9,,0.2,22,Wspd frozen
1/7/2006,10:00,-27.5,,0.2,20,Wspd frozen
1/7/2006,11:00,-29.3,,0.2,7,Wspd frozen
1/7/2006,12:00,-30.8,,0.2,23,Wspd frozen
1/7/2006,13:00,-31.2,,0.2,19,Wspd frozen
1/7/2006,14:00,-31.2,,0.2,20,Wspd frozen
1/7/2006,15:00,-31.7,,0.2,16,Wspd frozen
1/7/2006,16:00,-30.4,,0.2,47,Wspd frozen
1/7/2006,17:00,-30.3,,0.2,30,Wspd frozen
1/7/2006,18:00,-31.4,,0.2,20,Wspd frozen
1/7/2006,19:00,-31.8,,0.2,12,Wspd frozen
1/7/2006,20:00,-32.3,,0.2,349,Wspd frozen
1/7/2006,21:00,-33.3,,0.2,12,Wspd frozen
1/7/2006,22:00,-33.5,,0.2,356,Wspd frozen
1/7/2006,23:00,-32.9,,0.2,356,Wspd frozen
1/8/2006,0:00,-32.3,,0.2,336,Wspd frozen
1/8/2006,1:00,-31.7,,0.2,336,Wspd frozen
1/8/2006,2:00,-32.7,,0.2,324,Wspd frozen
1/8/2006,3:00,-33.9,,0.2,324,Wspd frozen
1/8/2006,4:00,-34.3,,0.2,298,Wspd frozen
1/8/2006,5:00,-34.4,,0.2,298,Wspd frozen
1/8/2006,6:00,-34.2,,0.2,315,Wspd frozen
1/8/2006,7:00,-33.7,,0.2,293,Wspd frozen
1/8/2006,8:00,-32.8,,0.2,266,Wspd frozen
1/8/2006,9:00,-32.0,,0.2,262,Wspd frozen
1/8/2006,10:00,-32.0,,0.2,290,Wspd frozen
1/8/2006,11:00,-32.7,,0.2,281,Wspd frozen
1/8/2006,12:00,-31.6,,0.2,293,Wspd frozen
1/8/2006,13:00,-31.8,,0.2,280,Wspd frozen
1/8/2006,14:00,-30.7,,0.2,274,Wspd frozen
1/8/2006,15:00,-30.3,,0.2,293,Wspd frozen
1/8/2006,16:00,-29.8,,0.2,260,Wspd frozen
1/8/2006,17:00,-30.6,,0.2,277,Wspd frozen
1/8/2006,18:00,-32.2,,0.2,251,Wspd frozen
1/8/2006,19:00,-33.7,,0.2,270,Wspd frozen
1/8/2006,20:00,-34.4,,0.2,246,Wspd frozen
1/8/2006,21:00,-34.7,,0.2,261,Wspd frozen
1/8/2006,22:00,-35.3,,0.2,224,Wspd frozen
1/8/2006,23:00,-35.2,,0.2,262,Wspd frozen
1/9/2006,0:00,-34.8,,0.2,205,Wspd frozen
1/9/2006,1:00,-35.6,,0.2,234,Wspd frozen
1/9/2006,2:00,-35.8,,0.2,246,Wspd frozen
1/9/2006,3:00,-36.7,,0.2,250,Wspd frozen
1/9/2006,4:00,-37.1,,0.2,230,Wspd frozen
1/9/2006,5:00,-37.4,,0.2,250,Wspd frozen
1/9/2006,6:00,-37.7,,0.2,225,Wspd frozen
1/9/2006,7:00,-37.8,,0.2,249,Wspd frozen
1/9/2006,8:00,-38.3,,0.2,237,Wspd frozen
1/9/2006,9:00,-38.5,,0.2,220,Wspd frozen
1/9/2006,10:00,-38.5,,0.2,228,Wspd frozen
1/9/2006,11:00,-38.7,,0.2,239,Wspd frozen
1/9/2006,12:00,-39.0,,0.2,230,Wspd frozen
1/9/2006,13:00,-38.9,,0.2,205,Wspd frozen
1/9/2006,14:00,-38.6,,0.2,242,Wspd frozen
1/9/2006,15:00,-38.6,,0.2,258,Wspd frozen
1/9/2006,16:00,-38.9,,0.2,248,Wspd frozen
1/9/2006,17:00,-38.9,,0.2,259,Wspd frozen
1/9/2006,18:00,-38.8,,0.2,228,Wspd frozen
1/9/2006,19:00,-38.1,,0.2,234,Wspd frozen
1/9/2006,20:00,-36.5,,0.2,230,Wspd frozen
1/9/2006,21:00,-35.7,,0.2,266,Wspd frozen
1/9/2006,22:00,-34.8,,0.2,258,Wspd frozen
1/9/2006,23:00,-33.1,,0.2,102,Wspd frozen
1/10/2006,0:00,-31.7,,0.2,160,Wspd frozen
1/10/2006,1:00,-30.5,,0.2,202,Wspd frozen
1/10/2006,2:00,-29.2,,0.2,241,Wspd frozen
1/10/2006,3:00,-28.4,,0.2,208,Wspd frozen
1/10/2006,4:00,-27.7,,0.2,255,Wspd frozen
1/10/2006,5:00,-27.3,,0.2,250,Wspd frozen
1/10/2006,6:00,-26.8,,0.2,357,Wspd frozen
1/10/2006,7:00,-26.4,,0.2,184,Wspd frozen
1/10/2006,8:00,-26.0,,0.2,26,Wspd frozen
1/10/2006,9:00,-25.8,,0.2,350,Wspd frozen
1/10/2006,10:00,-25.6,,0.2,69,Wspd frozen
1/10/2006,11:00,-25.4,,0.2,122,Wspd frozen
1/10/2006,12:00,-25.4,,0.2,346,Wspd frozen
1/10/2006,13:00,-25.1,,0.2,150,Wspd frozen
1/10/2006,14:00,-24.9,,0.2,292,Wspd frozen
1/10/2006,15:00,-24.7,,0.2,238,Wspd frozen
1/10/2006,16:00,-24.5,,0.2,236,Wspd frozen
1/10/2006,17:00,-24.4,,0.2,301,Wspd frozen
1/10/2006,18:00,-24.3,,0.2,271,Wspd frozen
1/10/2006,19:00,-24.2,,0.2,316,Wspd frozen
1/10/2006,20:00,-24.1,,0.2,327,Wspd frozen
1/10/2006,21:00,-24.0,,0.2,316,Wspd frozen
1/10/2006,22:00,-23.9,,0.2,293,Wspd frozen
1/10/2006,23:00,-24.0,,0.2,287,Wspd frozen
1/11/2006,0:00,-24.5,,0.2,269,Wspd frozen
1/11/2006,1:00,-24.3,,0.2,262,Wspd frozen
1/11/2006,2:00,-24.1,,0.2,263,Wspd frozen
1/11/2006,3:00,-24.0,,0.2,257,Wspd frozen
1/11/2006,4:00,-24.1,,0.2,201,Wspd frozen
1/11/2006,5:00,-24.0,,0.2,253,Wspd frozen
1/11/2006,6:00,-24.1,,0.2,224,Wspd frozen
1/11/2006,7:00,-24.1,,0.2,251,Wspd frozen
1/11/2006,8:00,-24.2,,0.2,226,Wspd frozen
1/11/2006,9:00,-24.3,,0.2,255,Wspd frozen
1/11/2006,10:00,-24.0,,0.2,262,Wspd frozen
1/11/2006,11:00,-23.8,,0.2,264,Wspd frozen
1/11/2006,12:00,-23.5,,0.2,253,Wspd frozen
1/11/2006,13:00,-23.3,,0.2,254,Wspd frozen
1/11/2006,14:00,-23.1,,0.2,260,Wspd frozen
1/11/2006,15:00,-22.7,,0.2,300,Wspd frozen
1/11/2006,16:00,-22.6,,0.2,308,Wspd frozen
1/11/2006,17:00,-22.6,,0.2,313,Wspd frozen
1/11/2006,18:00,-22.7,,0.2,276,Wspd frozen
1/11/2006,19:00,-23.5,,0.2,231,Wspd frozen
1/11/2006,20:00,-23.9,,0.2,271,Wspd frozen
1/11/2006,21:00,-23.4,,0.2,238,Wspd frozen
1/11/2006,22:00,-23.2,,0.2,246,Wspd frozen
1/11/2006,23:00,-22.9,,0.2,272,Wspd frozen
1/12/2006,0:00,-22.6,,0.2,245,Wspd frozen
1/12/2006,1:00,-22.5,,0.2,220,Wspd frozen
1/12/2006,2:00,-22.6,,0.2,232,Wspd frozen
1/12/2006,3:00,-23.0,,0.2,234,Wspd frozen
1/12/2006,4:00,-23.3,,0.2,206,Wspd frozen
1/12/2006,5:00,-23.4,,0.2,276,Wspd frozen
1/12/2006,6:00,-22.8,,0.2,147,Wspd frozen
1/12/2006,7:00,-22.5,,0.2,225,Wspd frozen
1/12/2006,8:00,-22.3,,0.2,312,Wspd frozen
1/12/2006,9:00,-22.0,,0.2,289,Wspd frozen
1/12/2006,10:00,-21.4,,0.2,327,Wspd frozen
1/12/2006,11:00,-21.8,,0.2,228,Wspd frozen
1/12/2006,12:00,-21.8,,0.2,255,Wspd frozen
1/12/2006,13:00,-20.8,,0.2,351,Wspd frozen
1/12/2006,14:00,-20.3,,0.2,38,Wspd frozen
1/12/2006,15:00,-20.3,,0.2,60,Wspd frozen
1/12/2006,16:00,-20.4,,0.2,314,Wspd frozen
1/12/2006,17:00,-20.4,,0.2,39,Wspd frozen
1/12/2006,18:00,-20.2,,0.2,54,Wspd frozen
1/12/2006,19:00,-20.0,,0.2,39,Wspd frozen
1/12/2006,20:00,-19.9,,0.2,50,Wspd frozen
1/12/2006,21:00,-19.6,,0.2,68,Wspd frozen
1/12/2006,22:00,-19.6,,0.2,103,Wspd frozen
1/12/2006,23:00,-19.5,,0.2,67,Wspd frozen
1/13/2006,0:00,-19.4,,0.2,76,Wspd frozen
1/13/2006,1:00,-19.3,,0.2,92,Wspd frozen
1/13/2006,2:00,-19.3,,0.2,73,Wspd frozen
1/13/2006,3:00,-19.1,,0.2,89,Wspd frozen
1/13/2006,4:00,-19.1,,0.2,123,Wspd frozen
1/13/2006,5:00,-19.3,,0.2,138,Wspd frozen
1/13/2006,6:00,-19.7,,0.2,151,Wspd frozen
1/13/2006,7:00,-20.4,,0.2,164,Wspd frozen
1/13/2006,8:00,-20.9,,0.2,197,Wspd frozen
1/13/2006,9:00,-20.8,,0.2,192,Wspd frozen
1/13/2006,10:00,-21.4,,0.2,228,Wspd frozen
1/13/2006,11:00,-21.6,,0.2,231,Wspd frozen
1/13/2006,12:00,-21.7,,0.2,243,Wspd frozen
1/13/2006,13:00,-22.0,,0.2,235,Wspd frozen
1/13/2006,14:00,-22.5,,0.2,229,Wspd frozen
1/13/2006,15:00,-22.8,,0.2,251,Wspd frozen
1/13/2006,16:00,-23.3,,0.2,227,Wspd frozen
1/13/2006,17:00,-24.5,,0.2,222,Wspd frozen
1/13/2006,18:00,-24.9,,0.2,222,Wspd frozen
1/13/2006,19:00,-25.3,,0.2,236,Wspd frozen
1/13/2006,20:00,-25.3,,0.2,248,Wspd frozen
1/13/2006,21:00,-25.1,,0.2,251,Wspd frozen
1/13/2006,22:00,-25.0,,0.2,229,Wspd frozen
1/13/2006,23:00,-24.8,,0.2,219,Wspd frozen
1/14/2006,0:00,-24.8,,0.2,208,Wspd frozen
1/14/2006,1:00,-24.9,,0.2,226,Wspd frozen
1/14/2006,2:00,-25.1,,0.2,244,Wspd frozen
1/14/2006,3:00,-25.1,,0.2,239,Wspd frozen
1/14/2006,4:00,-25.3,,0.2,226,Wspd frozen
1/14/2006,5:00,-25.5,,0.2,203,Wspd frozen
1/14/2006,6:00,-25.8,,0.2,233,Wspd frozen
1/14/2006,7:00,-26.2,,0.2,239,Wspd frozen
1/14/2006,8:00,-26.3,,0.2,250,Wspd frozen
1/14/2006,9:00,-26.4,,0.2,254,Wspd frozen
1/14/2006,10:00,-26.4,,0.2,254,Wspd frozen
1/14/2006,11:00,-26.3,,0.2,248,Wspd frozen
1/14/2006,12:00,-26.1,,0.2,272,Wspd frozen
1/14/2006,13:00,-25.9,,0.2,286,Wspd frozen
1/14/2006,14:00,-25.8,,0.2,266,Wspd frozen
1/14/2006,15:00,-25.8,,0.2,268,Wspd frozen
1/14/2006,16:00,-25.8,,0.2,260,Wspd frozen
1/14/2006,17:00,-25.6,,0.2,270,Wspd frozen
1/14/2006,18:00,-25.5,,0.2,264,Wspd frozen
1/14/2006,19:00,-25.3,,0.2,257,Wspd frozen
1/14/2006,20:00,-25.2,,0.2,254,Wspd frozen
1/14/2006,21:00,-25.1,,0.2,268,Wspd frozen
1/14/2006,22:00,-25.1,,0.2,262,Wspd frozen
1/14/2006,23:00,-25.2,,0.2,279,Wspd frozen
1/15/2006,0:00,-25.4,,0.2,239,Wspd frozen
1/15/2006,1:00,-25.6,,0.2,246,Wspd frozen
1/15/2006,2:00,-25.3,,0.2,258,Wspd frozen
1/15/2006,3:00,-25.3,,0.2,249,Wspd frozen
1/15/2006,4:00,-25.5,,0.2,241,Wspd frozen
1/15/2006,5:00,-25.7,,0.2,225,Wspd frozen
1/15/2006,6:00,-25.3,,0.2,245,Wspd frozen
1/15/2006,7:00,-25.4,,0.2,249,Wspd frozen
1/15/2006,8:00,-25.8,,0.2,233,Wspd frozen
1/15/2006,9:00,-25.4,,0.2,215,Wspd frozen
1/15/2006,10:00,-24.8,,0.2,227,Wspd frozen
1/15/2006,11:00,-24.1,,0.2,248,Wspd frozen
1/15/2006,12:00,-22.7,,0.2,282,Wspd frozen
1/15/2006,13:00,-23.0,,0.2,291,Wspd frozen
1/15/2006,14:00,-24.3,,0.2,265,Wspd frozen
1/15/2006,15:00,-24.6,,0.2,292,Wspd frozen
1/15/2006,16:00,-24.4,,0.2,286,Wspd frozen
1/15/2006,17:00,-24.2,,0.2,269,Wspd frozen
1/15/2006,18:00,-24.4,,0.2,280,Wspd frozen
1/15/2006,19:00,-24.2,,0.2,280,Wspd frozen
1/15/2006,20:00,-24.6,,0.2,281,Wspd frozen
1/15/2006,21:00,-25.3,,0.2,263,Wspd frozen
1/15/2006,22:00,-27.0,,0.2,255,Wspd frozen
1/15/2006,23:00,-28.6,,0.2,250,Wspd frozen
1/16/2006,0:00,-29.4,,0.2,238,Wspd frozen
1/16/2006,1:00,-29.9,,0.2,242,Wspd frozen
1/16/2006,2:00,-27.9,,0.2,266,Wspd frozen
1/16/2006,3:00,-27.0,,0.2,253,Wspd frozen
1/16/2006,4:00,-26.8,,0.2,256,Wspd frozen
1/16/2006,5:00,-26.7,,0.2,265,Wspd frozen
1/16/2006,6:00,-27.0,,0.2,248,Wspd frozen
1/16/2006,7:00,-27.1,,0.2,253,Wspd frozen
1/16/2006,8:00,-27.1,,0.2,256,Wspd frozen
1/16/2006,9:00,-26.6,,0.2,259,Wspd frozen
1/16/2006,10:00,-26.7,,0.2,260,Wspd frozen
1/16/2006,11:00,-25.9,,0.2,267,Wspd frozen
1/16/2006,12:00,-25.2,,0.2,254,Wspd frozen
1/16/2006,13:00,-24.7,,0.2,265,Wspd frozen
1/16/2006,14:00,-24.1,,0.2,279,Wspd frozen
1/16/2006,15:00,-23.7,,0.2,259,Wspd frozen
1/16/2006,16:00,-23.5,,0.2,256,Wspd frozen
1/16/2006,17:00,-23.3,,0.2,273,Wspd frozen
1/16/2006,18:00,-23.2,,0.2,258,Wspd frozen
1/16/2006,19:00,-23.1,,0.2,268,Wspd frozen
1/16/2006,20:00,-22.7,,0.2,259,Wspd frozen
1/16/2006,21:00,-22.4,,0.2,264,Wspd frozen
1/16/2006,22:00,-22.2,,0.2,252,Wspd frozen
1/16/2006,23:00,-21.9,,0.2,255,Wspd frozen
1/17/2006,0:00,-21.6,,0.2,253,Wspd frozen
1/17/2006,1:00,-21.4,,0.2,250,Wspd frozen
1/17/2006,2:00,-21.1,,0.2,257,Wspd frozen
1/17/2006,3:00,-20.9,,0.2,262,Wspd frozen
1/17/2006,4:00,-20.6,,0.2,250,Wspd frozen
1/17/2006,5:00,-20.5,,0.2,251,Wspd frozen
1/17/2006,6:00,-20.2,,0.2,249,Wspd frozen
1/17/2006,7:00,-20.1,,0.2,265,Wspd frozen
1/17/2006,8:00,-20.1,,0.2,252,Wspd frozen
1/17/2006,9:00,-20.1,,0.2,259,Wspd frozen
1/17/2006,10:00,-20.2,,0.2,251,Wspd frozen
1/17/2006,11:00,-20.4,,0.2,232,Wspd frozen
1/17/2006,12:00,-20.6,,0.2,257,Wspd frozen
1/17/2006,13:00,-20.8,,0.2,267,Wspd frozen
1/17/2006,14:00,-21.2,,0.2,248,Wspd frozen
1/17/2006,15:00,-21.8,,0.2,256,Wspd frozen
1/17/2006,16:00,-22.1,,0.2,242,Wspd frozen
1/17/2006,17:00,-21.9,,0.2,235,Wspd frozen
1/17/2006,18:00,-21.5,,0.2,259,Wspd frozen
1/17/2006,19:00,-21.5,,0.2,210,Wspd frozen
1/17/2006,20:00,-23.8,,0.2,256,Wspd frozen
1/17/2006,21:00,-25.8,,0.2,221,Wspd frozen
1/17/2006,22:00,-27.3,,0.2,224,Wspd frozen
1/17/2006,23:00,-27.9,,0.2,237,Wspd frozen
1/18/2006,0:00,-28.4,,0.2,235,Wspd frozen
1/18/2006,1:00,-28.2,,0.2,261,Wspd frozen
1/18/2006,2:00,-28.0,,0.2,234,Wspd frozen
1/18/2006,3:00,-27.1,,0.2,241,Wspd frozen
1/18/2006,4:00,-24.2,,0.2,203,Wspd frozen
1/18/2006,5:00,-23.2,,0.2,192,Wspd frozen
1/18/2006,6:00,-23.2,,0.2,199,Wspd frozen
1/18/2006,7:00,-23.6,,0.2,168,Wspd frozen
1/18/2006,8:00,-24.1,,0.2,167,Wspd frozen
1/18/2006,9:00,-24.4,,0.2,168,Wspd frozen
1/18/2006,10:00,-24.7,,0.2,160,Wspd frozen
1/18/2006,11:00,-24.9,,0.2,148,Wspd frozen
1/18/2006,12:00,-25.3,,0.2,113,Wspd frozen
1/18/2006,13:00,-26.0,,0.2,125,Wspd frozen
1/18/2006,14:00,-26.0,,0.2,148,Wspd frozen
1/18/2006,15:00,-26.3,,0.2,98,Wspd frozen
1/18/2006,16:00,-26.7,,0.2,111,Wspd frozen
1/18/2006,17:00,-26.9,,0.2,114,Wspd frozen
1/18/2006,18:00,-27.1,,0.2,116,Wspd frozen
1/18/2006,19:00,-26.9,,0.2,208,Wspd frozen
1/18/2006,20:00,-26.3,,0.2,150,Wspd frozen
1/18/2006,21:00,-26.9,,0.2,103,Wspd frozen
1/18/2006,22:00,-27.9,,0.2,130,Wspd frozen
1/18/2006,23:00,-27.4,,0.2,205,Wspd frozen
1/19/2006,0:00,-27.0,,0.2,209,Wspd frozen
1/19/2006,1:00,-26.9,,0.2,264,Wspd frozen
1/19/2006,2:00,-24.5,,0.2,286,Wspd frozen
1/19/2006,3:00,-23.6,,0.2,268,Wspd frozen
1/19/2006,4:00,-25.3,,0.2,253,Wspd frozen
1/19/2006,5:00,-26.2,,0.2,255,Wspd frozen
1/19/2006,6:00,-26.5,,0.2,264,Wspd frozen
1/19/2006,7:00,-26.9,,0.2,262,Wspd frozen
1/19/2006,8:00,-26.7,,0.2,270,Wspd frozen
1/19/2006,9:00,-27.5,,0.2,260,Wspd frozen
1/19/2006,10:00,-27.9,,0.2,266,Wspd frozen
1/19/2006,11:00,-28.3,,0.2,265,Wspd frozen
1/19/2006,12:00,-28.5,,0.2,258,Wspd frozen
1/19/2006,13:00,-28.9,,0.2,263,Wspd frozen
1/19/2006,14:00,-29.0,,0.2,257,Wspd frozen
1/19/2006,15:00,-30.1,,0.2,248,Wspd frozen
1/19/2006,16:00,-30.6,,0.2,251,Wspd frozen
1/19/2006,17:00,-30.2,,0.2,252,Wspd frozen
1/19/2006,18:00,-30.6,,0.2,249,Wspd frozen
1/19/2006,19:00,-31.6,,0.2,251,Wspd frozen
1/19/2006,20:00,-31.7,,0.2,243,Wspd frozen
1/19/2006,21:00,-30.6,,0.2,254,Wspd frozen
1/19/2006,22:00,-29.5,,0.2,257,Wspd frozen
1/19/2006,23:00,-30.2,,0.2,247,Wspd frozen
1/20/2006,0:00,-30.8,,0.2,248,Wspd frozen
1/20/2006,1:00,-30.6,,0.2,248,Wspd frozen
1/20/2006,2:00,-30.8,,0.2,254,Wspd frozen
1/20/2006,3:00,-31.0,,0.2,248,Wspd frozen
1/20/2006,4:00,-29.9,,0.2,240,Wspd frozen
1/20/2006,5:00,-29.9,,0.2,258,Wspd frozen
1/20/2006,6:00,-30.9,,0.2,247,Wspd frozen
1/20/2006,7:00,-30.7,,0.2,252,Wspd frozen
1/20/2006,8:00,-30.9,,0.2,248,Wspd frozen
1/20/2006,9:00,-31.0,,0.2,250,Wspd frozen
1/20/2006,10:00,-31.4,,0.2,247,Wspd frozen
1/20/2006,11:00,-31.3,,0.2,253,Wspd frozen
1/20/2006,12:00,-30.6,,0.2,240,Wspd frozen
1/20/2006,13:00,-30.6,,0.2,260,Wspd frozen
1/20/2006,14:00,-30.3,,0.2,260,Wspd frozen
1/20/2006,15:00,-30.4,,0.2,256,Wspd frozen
1/20/2006,16:00,-30.5,,0.2,258,Wspd frozen
1/20/2006,17:00,-31.5,,0.2,265,Wspd frozen
1/20/2006,18:00,-31.5,,0.2,268,Wspd frozen
1/20/2006,19:00,-31.9,,0.2,273,Wspd frozen
1/20/2006,20:00,-33.2,,0.2,264,Wspd frozen
1/20/2006,21:00,-34.6,,0.2,258,Wspd frozen
1/20/2006,22:00,-34.5,,0.2,252,Wspd frozen
1/20/2006,23:00,-34.7,,0.2,251,Wspd frozen
1/21/2006,0:00,-35.0,,0.2,254,Wspd frozen
1/21/2006,1:00,-36.3,,0.2,253,Wspd frozen
1/21/2006,2:00,-37.2,,0.2,259,Wspd frozen
1/21/2006,3:00,-37.8,,0.2,234,Wspd frozen
1/21/2006,4:00,-38.2,,0.2,242,Wspd frozen
1/21/2006,5:00,-38.6,,0.2,250,Wspd frozen
1/21/2006,6:00,-39.0,,0.2,235,Wspd frozen
1/21/2006,7:00,-38.9,,0.2,254,Wspd frozen
1/21/2006,8:00,-39.1,,0.2,250,Wspd frozen
1/21/2006,9:00,-39.6,,0.2,249,Wspd frozen
1/21/2006,10:00,-39.8,,0.2,251,Wspd frozen
1/21/2006,11:00,-39.8,,0.2,254,Wspd frozen
1/21/2006,12:00,-40.1,,0.2,238,Wspd frozen
1/21/2006,13:00,-39.7,,0.2,253,Wspd frozen
1/21/2006,14:00,-39.8,,0.2,259,Wspd frozen
1/21/2006,15:00,-40.1,,0.2,238,Wspd frozen
1/21/2006,16:00,-40.2,,0.2,229,Wspd frozen
1/21/2006,17:00,-39.8,,0.2,256,Wspd frozen
1/21/2006,18:00,-39.9,,0.2,233,Wspd frozen
1/21/2006,19:00,-39.7,,0.2,249,Wspd frozen
1/21/2006,20:00,-39.0,,0.2,255,Wspd frozen
1/21/2006,21:00,-38.7,,0.2,241,Wspd frozen
1/21/2006,22:00,-37.8,,0.2,246,Wspd frozen
1/21/2006,23:00,-37.6,,0.2,244,Wspd frozen
1/22/2006,0:00,-36.5,,0.2,255,Wspd frozen
1/22/2006,1:00,-35.7,,0.2,252,Wspd frozen
1/22/2006,2:00,-35.9,,0.2,253,Wspd frozen
1/22/2006,3:00,-35.1,,0.2,245,Wspd frozen
1/22/2006,4:00,-34.6,,0.2,250,Wspd frozen
1/22/2006,5:00,-34.3,,0.2,240,Wspd frozen
1/22/2006,6:00,-33.7,,0.2,253,Wspd frozen
1/22/2006,7:00,-32.6,,0.2,247,Wspd frozen
1/22/2006,8:00,-31.7,,0.2,248,Wspd frozen
1/22/2006,9:00,-31.4,,0.2,250,Wspd frozen
1/22/2006,10:00,-29.9,,0.2,248,Wspd frozen
1/22/2006,11:00,-28.6,,0.2,255,Wspd frozen
1/22/2006,12:00,-27.5,,0.2,248,Wspd frozen
1/22/2006,13:00,-26.4,,0.2,255,Wspd frozen
1/22/2006,14:00,-25.2,,0.2,254,Wspd frozen
1/22/2006,15:00,-23.3,,0.2,268,Wspd frozen
1/22/2006,16:00,-21.9,,0.2,270,Wspd frozen
1/22/2006,17:00,-20.9,,0.7,260,Wspd frozen
1/22/2006,18:00,-20.1,,0.2,298,Wspd frozen
1/22/2006,19:00,-20.1,,0.2,286,Wspd frozen
1/22/2006,20:00,-20.2,,0.2,280,Wspd frozen
1/22/2006,21:00,-20.4,,0.2,277,Wspd frozen
1/22/2006,22:00,-20.4,,0.2,276,Wspd frozen
1/22/2006,23:00,-20.6,,0.2,275,Wspd frozen
1/23/2006,0:00,-20.9,,0.2,278,Wspd frozen
1/23/2006,1:00,-21.1,,0.2,277,Wspd frozen
1/23/2006,2:00,-21.1,,0.2,280,Wspd frozen
1/23/2006,3:00,-21.1,,0.2,272,Wspd frozen
1/23/2006,4:00,-20.8,,0.2,277,Wspd frozen
1/23/2006,5:00,-20.8,,0.2,274,Wspd frozen
1/23/2006,6:00,-21.4,,0.2,280,Wspd frozen
1/23/2006,7:00,-21.8,,0.2,273,Wspd frozen
1/23/2006,8:00,-22.2,,0.2,278,Wspd frozen
1/23/2006,9:00,-22.6,,0.2,291,Wspd frozen
1/23/2006,10:00,-23.1,,0.2,270,Wspd frozen
1/23/2006,11:00,-23.5,,0.2,270,Wspd frozen
1/23/2006,12:00,-23.6,,0.2,267,Wspd frozen
1/23/2006,13:00,-23.4,,0.2,270,Wspd frozen
1/23/2006,14:00,-23.3,,0.2,266,Wspd frozen
1/23/2006,15:00,-23.6,,0.2,267,Wspd frozen
1/23/2006,16:00,-24.5,,0.2,281,Wspd frozen
1/23/2006,17:00,-25.1,,0.2,269,Wspd frozen
1/23/2006,18:00,-25.5,,0.2,278,Wspd frozen
1/23/2006,19:00,-26.1,,0.2,293,Wspd frozen
1/23/2006,20:00,-26.3,,0.2,294,Wspd frozen
1/23/2006,21:00,-27.0,,0.2,283,Wspd frozen
1/23/2006,22:00,-27.1,,0.2,292,Wspd frozen
1/23/2006,23:00,-27.4,,0.2,291,Wspd frozen
1/24/2006,0:00,-27.7,,0.2,275,Wspd frozen
1/24/2006,1:00,-27.7,,0.2,281,Wspd frozen
1/24/2006,2:00,-27.6,,0.2,268,Wspd frozen
1/24/2006,3:00,-27.6,,0.2,283,Wspd frozen
1/24/2006,4:00,-27.8,,0.2,270,Wspd frozen
1/24/2006,5:00,-27.7,,0.2,278,Wspd frozen
1/24/2006,6:00,-27.5,,0.2,272,Wspd frozen
1/24/2006,7:00,-27.8,,0.2,270,Wspd frozen
1/24/2006,8:00,-27.7,,0.2,284,Wspd frozen
1/24/2006,9:00,-28.4,,0.2,268,Wspd frozen
1/24/2006,10:00,-29.7,,0.2,247,Wspd frozen
1/24/2006,11:00,-29.8,,0.2,257,Wspd frozen
1/24/2006,12:00,-30.6,,0.2,245,Wspd frozen
1/24/2006,13:00,-28.7,,0.2,273,Wspd frozen
1/24/2006,14:00,-28.3,,0.4,280,Wspd frozen
1/24/2006,15:00,-28.5,,0.2,269,Wspd frozen